When you browse on this site, cookies collect data to enhance your experience and personalize the content and advertising you see.
Visit our Privacy Policy to learn more. By continuing to use the site, you agree to this use of cookies and data.
  • en France
  • Liste des pays
  • À 7 jours
  • Température de l'eau
  • Carte satellitaire
  • Carte météo
  • Widgets météo
  • user-avatar
    Se connecter

    Météo par heure à Ibadan

    Ce jour, 23 Janvier, Mercredi

    Heure Température Précipitation Vent Pression Humidité
    00:00 +29°C° 0 mm 1 m/s 742 mmHg 79%
    01:00 +29°C° 0 mm 1 m/s 742 mmHg 81%
    02:00 +28°C° 0 mm 1 m/s 741 mmHg 83%
    03:00 +28°C° 0 mm 1 m/s 741 mmHg 85%
    04:00 +28°C° 0.1 mm 1 m/s 742 mmHg 83%
    05:00 +29°C° 0.1 mm 1 m/s 742 mmHg 81%
    06:00 +29°C° 0.1 mm 1 m/s 742 mmHg 79%
    07:00 +29°C° 0.1 mm 1 m/s 743 mmHg 76%
    08:00 +30°C° 0.1 mm 1 m/s 743 mmHg 73%
    09:00 +30°C° 0.1 mm 1 m/s 743 mmHg 70%
    10:00 +33°C° 0 mm 1 m/s 743 mmHg 60%
    11:00 +36°C° 0 mm 1 m/s 743 mmHg 50%
    12:00 +36°C° 0 mm 0 m/s 742 mmHg 40%
    13:00 +37°C° 0 mm 0 m/s 741 mmHg 36%
    14:00 +37°C° 0 mm 0 m/s 741 mmHg 32%
    15:00 +38°C° 0 mm 0 m/s 740 mmHg 28%
    16:00 +39°C° 0 mm 1 m/s 740 mmHg 32%
    17:00 +36°C° 0 mm 1 m/s 740 mmHg 36%
    18:00 +34°C° 0 mm 1 m/s 740 mmHg 40%
    19:00 +34°C° 0 mm 2 m/s 740 mmHg 51%
    20:00 +31°C° 0 mm 2 m/s 741 mmHg 63%
    21:00 +30°C° 0 mm 3 m/s 742 mmHg 75%
    22:00 +30°C° 0.1 mm 3 m/s 742 mmHg 77%
    23:00 +29°C° 0.1 mm 3 m/s 742 mmHg 79%

    Demain, 24 Janvier, Jeudi

    Heure Température Précipitation Vent Pression Humidité
    00:00 +29°C° 0.1 mm 2 m/s 742 mmHg 81%
    01:00 +29°C° 0.4 mm 2 m/s 741 mmHg 82%
    02:00 +29°C° 0.4 mm 2 m/s 741 mmHg 82%
    03:00 +29°C° 0.4 mm 2 m/s 741 mmHg 82%
    04:00 +28°C° 1.7 mm 2 m/s 741 mmHg 83%
    05:00 +28°C° 1.7 mm 2 m/s 741 mmHg 83%
    06:00 +27°C° 1.7 mm 2 m/s 741 mmHg 83%
    07:00 +29°C° 0.1 mm 2 m/s 742 mmHg 76%
    08:00 +30°C° 0.1 mm 2 m/s 742 mmHg 69%
    09:00 +32°C° 0.1 mm 2 m/s 743 mmHg 62%
    10:00 +34°C° 0.5 mm 2 m/s 742 mmHg 56%
    11:00 +35°C° 0.5 mm 2 m/s 742 mmHg 50%
    12:00 +37°C° 0.5 mm 2 m/s 742 mmHg 45%
    13:00 +37°C° 0 mm 2 m/s 741 mmHg 44%
    14:00 +37°C° 0 mm 2 m/s 740 mmHg 43%
    15:00 +37°C° 0 mm 2 m/s 739 mmHg 43%
    16:00 +35°C° 0 mm 2 m/s 740 mmHg 47%
    17:00 +34°C° 0 mm 2 m/s 740 mmHg 51%
    18:00 +33°C° 0 mm 3 m/s 740 mmHg 55%
    19:00 +31°C° 0.2 mm 2 m/s 741 mmHg 62%
    20:00 +30°C° 0.2 mm 2 m/s 741 mmHg 68%
    21:00 +29°C° 0.2 mm 2 m/s 742 mmHg 75%
    22:00 +28°C° 0 mm 2 m/s 742 mmHg 77%
    23:00 +28°C° 0 mm 1 m/s 742 mmHg 79%

    Après-demain, 25 Janvier, Vendredi

    Heure Température Précipitation Vent Pression Humidité
    00:00 +28°C° 0 mm 1 m/s 742 mmHg 82%
    01:00 +27°C° 0 mm 1 m/s 741 mmHg 84%
    02:00 +27°C° 0 mm 1 m/s 741 mmHg 86%
    03:00 +27°C° 0 mm 1 m/s 740 mmHg 88%
    04:00 +27°C° 0.1 mm 1 m/s 741 mmHg 89%
    05:00 +27°C° 0.1 mm 1 m/s 741 mmHg 90%
    06:00 +27°C° 0.1 mm 1 m/s 741 mmHg 91%
    07:00 +28°C° 0.2 mm 1 m/s 742 mmHg 82%
    08:00 +30°C° 0.2 mm 1 m/s 742 mmHg 74%
    09:00 +32°C° 0.2 mm 2 m/s 743 mmHg 65%
    10:00 +35°C° 0 mm 2 m/s 743 mmHg 56%
    11:00 +36°C° 0 mm 1 m/s 742 mmHg 47%
    12:00 +39°C° 0 mm 1 m/s 742 mmHg 38%
    13:00 +39°C° 0 mm 1 m/s 741 mmHg 38%
    14:00 +37°C° 0 mm 1 m/s 740 mmHg 39%
    15:00 +37°C° 0 mm 2 m/s 739 mmHg 39%
    16:00 +36°C° 0 mm 2 m/s 739 mmHg 45%
    17:00 +35°C° 0 mm 2 m/s 739 mmHg 51%
    18:00 +34°C° 0 mm 3 m/s 740 mmHg 57%
    19:00 +33°C° 0 mm 3 m/s 740 mmHg 63%
    20:00 +31°C° 0 mm 3 m/s 741 mmHg 70%
    21:00 +29°C° 0 mm 2 m/s 742 mmHg 76%
    22:00 +29°C° 0 mm 2 m/s 742 mmHg 78%
    23:00 +29°C° 0 mm 2 m/s 742 mmHg 80%

    26 Janvier, Samedi

    Heure Température Précipitation Vent Pression Humidité
    00:00 +28°C° 0 mm 2 m/s 741 mmHg 82%
    01:00 +28°C° 0.1 mm 2 m/s 741 mmHg 83%
    02:00 +28°C° 0.1 mm 2 m/s 741 mmHg 84%
    03:00 +28°C° 0.1 mm 2 m/s 740 mmHg 85%
    04:00 +28°C° 0 mm 1 m/s 741 mmHg 85%
    05:00 +28°C° 0 mm 1 m/s 741 mmHg 84%
    06:00 +28°C° 0 mm 1 m/s 742 mmHg 83%
    07:00 +30°C° 0 mm 1 m/s 742 mmHg 76%
    08:00 +31°C° 0 mm 1 m/s 743 mmHg 69%
    09:00 +32°C° 0 mm 2 m/s 743 mmHg 62%
    10:00 +34°C° 0 mm 1 m/s 743 mmHg 53%
    11:00 +37°C° 0 mm 1 m/s 742 mmHg 44%
    12:00 +40°C° 0 mm 1 m/s 742 mmHg 35%
    13:00 +40°C° 0 mm 1 m/s 741 mmHg 33%
    14:00 +40°C° 0 mm 1 m/s 740 mmHg 31%
    15:00 +40°C° 0 mm 1 m/s 739 mmHg 29%
    16:00 +38°C° 0 mm 2 m/s 740 mmHg 37%
    17:00 +36°C° 0 mm 2 m/s 740 mmHg 45%
    18:00 +35°C° 0 mm 3 m/s 740 mmHg 52%
    19:00 +33°C° 0 mm 3 m/s 741 mmHg 59%
    20:00 +31°C° 0 mm 3 m/s 741 mmHg 67%
    21:00 +30°C° 0 mm 3 m/s 742 mmHg 74%
    22:00 +30°C° 0 mm 3 m/s 742 mmHg 76%
    23:00 +29°C° 0 mm 2 m/s 742 mmHg 78%

    27 Janvier, Dimanche

    Heure Température Précipitation Vent Pression Humidité
    00:00 +29°C° 0 mm 2 m/s 742 mmHg 80%
    01:00 +29°C° 0 mm 2 m/s 741 mmHg 81%
    02:00 +29°C° 0 mm 2 m/s 741 mmHg 81%
    03:00 +29°C° 0 mm 2 m/s 741 mmHg 82%
    04:00 +29°C° 0.1 mm 2 m/s 741 mmHg 82%
    05:00 +29°C° 0.1 mm 2 m/s 741 mmHg 81%
    06:00 +29°C° 0.1 mm 2 m/s 742 mmHg 80%
    07:00 +30°C° 0 mm 2 m/s 742 mmHg 74%
    08:00 +31°C° 0 mm 2 m/s 743 mmHg 67%
    09:00 +32°C° 0 mm 2 m/s 743 mmHg 60%
    10:00 +34°C° 0 mm 2 m/s 743 mmHg 57%
    11:00 +34°C° 0 mm 1 m/s 742 mmHg 53%
    12:00 +35°C° 0 mm 1 m/s 741 mmHg 49%
    13:00 +35°C° 0 mm 1 m/s 741 mmHg 47%
    14:00 +37°C° 0 mm 2 m/s 740 mmHg 44%
    15:00 +37°C° 0 mm 2 m/s 739 mmHg 41%
    16:00 +36°C° 0 mm 2 m/s 739 mmHg 48%
    17:00 +34°C° 0 mm 3 m/s 740 mmHg 54%
    18:00 +33°C° 0 mm 3 m/s 740 mmHg 60%
    19:00 +31°C° 0 mm 3 m/s 741 mmHg 66%
    20:00 +30°C° 0 mm 3 m/s 741 mmHg 72%
    21:00 +29°C° 0 mm 3 m/s 742 mmHg 78%
    22:00 +29°C° 0 mm 3 m/s 742 mmHg 79%
    23:00 +29°C° 0 mm 3 m/s 742 mmHg 80%

    28 Janvier, Lundi

    Heure Température Précipitation Vent Pression Humidité
    00:00 +29°C° 0 mm 3 m/s 742 mmHg 81%
    01:00 +29°C° 0 mm 3 m/s 741 mmHg 81%
    02:00 +28°C° 0 mm 2 m/s 741 mmHg 82%
    03:00 +28°C° 0 mm 2 m/s 741 mmHg 82%
    04:00 +28°C° 0.1 mm 2 m/s 741 mmHg 82%
    05:00 +28°C° 0.1 mm 2 m/s 741 mmHg 82%
    06:00 +28°C° 0.1 mm 2 m/s 741 mmHg 82%
    07:00 +29°C° 0.1 mm 2 m/s 742 mmHg 76%
    08:00 +30°C° 0.1 mm 2 m/s 742 mmHg 70%
    09:00 +32°C° 0.1 mm 2 m/s 742 mmHg 65%
    10:00 +34°C° 0.3 mm 2 m/s 742 mmHg 58%
    11:00 +35°C° 0.3 mm 2 m/s 741 mmHg 52%
    12:00 +37°C° 0.3 mm 2 m/s 741 mmHg 46%
    13:00 +36°C° 0.4 mm 3 m/s 740 mmHg 47%
    14:00 +36°C° 0.4 mm 3 m/s 740 mmHg 47%
    15:00 +36°C° 0.4 mm 3 m/s 739 mmHg 48%
    16:00 +35°C° 0.2 mm 3 m/s 740 mmHg 53%
    17:00 +34°C° 0.2 mm 2 m/s 740 mmHg 58%
    18:00 +31°C° 0.2 mm 2 m/s 740 mmHg 62%
    19:00 +31°C° 0 mm 2 m/s 741 mmHg 67%
    20:00 +30°C° 0 mm 2 m/s 741 mmHg 71%
    21:00 +29°C° 0 mm 2 m/s 742 mmHg 75%
    22:00 +29°C° 0 mm 2 m/s 742 mmHg 77%
    23:00 +28°C° 0 mm 2 m/s 741 mmHg 78%
    Voir plus